When you browse on this site, cookies collect data to enhance your experience and personalize the content and advertising you see.
Visit our Privacy Policy to learn more. By continuing to use the site, you agree to this use of cookies and data.
  • In Lithuania
  • List of Countries
  • For 7 days
  • Water Temperature
  • Satellite Maps
  • Weather Map
  • Weather Widgets
  • user-avatar
    Login

    Hourly Weather Duchan

    Today, 17 July, Wednesday

    Time Temperature Precipitation Wind Pressure Humidity
    00:00 +36°C° 0 mm 6 mps 744 mmHg 38%
    01:00 +36°C° 0 mm 6 mps 744 mmHg 40%
    02:00 +36°C° 0 mm 6 mps 744 mmHg 41%
    03:00 +35°C° 0 mm 6 mps 744 mmHg 42%
    04:00 +36°C° 0 mm 6 mps 744 mmHg 42%
    05:00 +36°C° 0 mm 7 mps 745 mmHg 43%
    06:00 +36°C° 0 mm 7 mps 745 mmHg 43%
    07:00 +39°C° 0 mm 8 mps 746 mmHg 35%
    08:00 +41°C° 0 mm 8 mps 746 mmHg 27%
    09:00 +44°C° 0 mm 9 mps 746 mmHg 19%
    10:00 +45°C° 0 mm 9 mps 746 mmHg 18%
    11:00 +45°C° 0 mm 9 mps 746 mmHg 17%
    12:00 +47°C° 0 mm 9 mps 746 mmHg 16%
    13:00 +45°C° 0 mm 10 mps 746 mmHg 17%
    14:00 +45°C° 0 mm 10 mps 745 mmHg 17%
    15:00 +44°C° 0 mm 10 mps 745 mmHg 17%
    16:00 +43°C° 0 mm 9 mps 745 mmHg 19%
    17:00 +41°C° 0 mm 8 mps 745 mmHg 22%
    18:00 +40°C° 0 mm 6 mps 745 mmHg 24%
    19:00 +37°C° 0 mm 5 mps 745 mmHg 30%
    20:00 +35°C° 0 mm 4 mps 745 mmHg 36%
    21:00 +34°C° 0 mm 3 mps 746 mmHg 42%
    22:00 +34°C° 0 mm 3 mps 745 mmHg 42%
    23:00 +34°C° 0 mm 3 mps 745 mmHg 42%

    Tomorrow, 18 July, Thursday

    Time Temperature Precipitation Wind Pressure Humidity
    00:00 +34°C° 0 mm 4 mps 745 mmHg 42%
    01:00 +34°C° 0 mm 4 mps 745 mmHg 42%
    02:00 +34°C° 0 mm 4 mps 745 mmHg 42%
    03:00 +34°C° 0 mm 5 mps 744 mmHg 42%
    04:00 +34°C° 0 mm 5 mps 745 mmHg 44%
    05:00 +34°C° 0 mm 5 mps 745 mmHg 47%
    06:00 +35°C° 0 mm 5 mps 746 mmHg 49%
    07:00 +38°C° 0 mm 6 mps 746 mmHg 40%
    08:00 +41°C° 0 mm 6 mps 746 mmHg 31%
    09:00 +44°C° 0 mm 6 mps 746 mmHg 23%
    10:00 +45°C° 0 mm 6 mps 746 mmHg 21%
    11:00 +46°C° 0 mm 6 mps 746 mmHg 18%
    12:00 +47°C° 0 mm 5 mps 746 mmHg 16%
    13:00 +47°C° 0 mm 6 mps 745 mmHg 16%
    14:00 +47°C° 0 mm 6 mps 745 mmHg 15%
    15:00 +46°C° 0 mm 7 mps 744 mmHg 15%
    16:00 +45°C° 0 mm 6 mps 744 mmHg 17%
    17:00 +42°C° 0 mm 5 mps 744 mmHg 19%
    18:00 +41°C° 0 mm 4 mps 744 mmHg 21%
    19:00 +38°C° 0 mm 3 mps 744 mmHg 26%
    20:00 +35°C° 0 mm 2 mps 744 mmHg 30%
    21:00 +32°C° 0 mm 1 mps 745 mmHg 35%
    22:00 +34°C° 0 mm 2 mps 744 mmHg 32%
    23:00 +34°C° 0 mm 2 mps 744 mmHg 29%

    Day after tomorrow, 19 July, Friday

    Time Temperature Precipitation Wind Pressure Humidity
    00:00 +34°C° 0 mm 3 mps 744 mmHg 26%
    01:00 +34°C° 0 mm 3 mps 744 mmHg 28%
    02:00 +34°C° 0 mm 3 mps 744 mmHg 30%
    03:00 +34°C° 0 mm 4 mps 743 mmHg 31%
    04:00 +34°C° 0 mm 4 mps 744 mmHg 31%
    05:00 +34°C° 0 mm 5 mps 744 mmHg 31%
    06:00 +35°C° 0 mm 6 mps 744 mmHg 31%
    07:00 +37°C° 0 mm 5 mps 744 mmHg 29%
    08:00 +40°C° 0 mm 5 mps 745 mmHg 27%
    09:00 +42°C° 0 mm 4 mps 745 mmHg 25%
    10:00 +43°C° 0 mm 4 mps 744 mmHg 24%
    11:00 +44°C° 0 mm 4 mps 744 mmHg 23%
    12:00 +45°C° 0 mm 4 mps 744 mmHg 22%
    13:00 +47°C° 0 mm 5 mps 743 mmHg 22%
    14:00 +47°C° 0 mm 6 mps 743 mmHg 22%
    15:00 +47°C° 0 mm 7 mps 743 mmHg 22%
    16:00 +46°C° 0 mm 6 mps 743 mmHg 23%
    17:00 +44°C° 0 mm 6 mps 743 mmHg 24%
    18:00 +41°C° 0 mm 5 mps 743 mmHg 25%
    19:00 +38°C° 0 mm 4 mps 743 mmHg 31%
    20:00 +36°C° 0 mm 4 mps 743 mmHg 37%
    21:00 +34°C° 0 mm 3 mps 744 mmHg 44%
    22:00 +34°C° 0 mm 3 mps 744 mmHg 44%
    23:00 +32°C° 0 mm 2 mps 744 mmHg 44%

    20 July, Saturday

    Time Temperature Precipitation Wind Pressure Humidity
    00:00 +32°C° 0 mm 2 mps 744 mmHg 44%
    01:00 +31°C° 0 mm 2 mps 744 mmHg 47%
    02:00 +30°C° 0 mm 1 mps 744 mmHg 49%
    03:00 +29°C° 0 mm 1 mps 744 mmHg 51%
    04:00 +30°C° 0 mm 1 mps 744 mmHg 50%
    05:00 +31°C° 0 mm 1 mps 744 mmHg 48%
    06:00 +32°C° 0 mm 1 mps 745 mmHg 47%
    07:00 +34°C° 0 mm 1 mps 745 mmHg 41%
    08:00 +38°C° 0 mm 2 mps 746 mmHg 35%
    09:00 +40°C° 0 mm 2 mps 746 mmHg 29%
    10:00 +43°C° 0 mm 3 mps 746 mmHg 27%
    11:00 +44°C° 0 mm 3 mps 746 mmHg 24%
    12:00 +47°C° 0 mm 4 mps 745 mmHg 22%
    13:00 +47°C° 0 mm 5 mps 745 mmHg 23%
    14:00 +47°C° 0 mm 5 mps 745 mmHg 24%
    15:00 +47°C° 0 mm 6 mps 744 mmHg 25%
    16:00 +45°C° 0 mm 6 mps 745 mmHg 29%
    17:00 +43°C° 0 mm 5 mps 745 mmHg 32%
    18:00 +41°C° 0 mm 5 mps 745 mmHg 36%
    19:00 +38°C° 0 mm 4 mps 745 mmHg 43%
    20:00 +36°C° 0 mm 4 mps 745 mmHg 51%
    21:00 +35°C° 0 mm 3 mps 746 mmHg 59%
    22:00 +34°C° 0 mm 2 mps 745 mmHg 58%
    23:00 +34°C° 0 mm 2 mps 745 mmHg 57%

    21 July, Sunday

    Time Temperature Precipitation Wind Pressure Humidity
    00:00 +34°C° 0 mm 2 mps 745 mmHg 57%
    01:00 +34°C° 0 mm 2 mps 744 mmHg 55%
    02:00 +32°C° 0 mm 2 mps 744 mmHg 53%
    03:00 +32°C° 0 mm 2 mps 744 mmHg 52%
    04:00 +34°C° 0 mm 3 mps 744 mmHg 48%
    05:00 +34°C° 0 mm 3 mps 745 mmHg 44%
    06:00 +35°C° 0 mm 4 mps 745 mmHg 40%
    07:00 +38°C° 0 mm 4 mps 745 mmHg 35%
    08:00 +41°C° 0 mm 4 mps 745 mmHg 30%
    09:00 +43°C° 0 mm 4 mps 745 mmHg 25%
    10:00 +45°C° 0 mm 4 mps 745 mmHg 21%
    11:00 +48°C° 0 mm 4 mps 745 mmHg 16%
    12:00 +49°C° 0 mm 4 mps 744 mmHg 12%
    13:00 +49°C° 0 mm 4 mps 744 mmHg 12%
    14:00 +50°C° 0 mm 4 mps 743 mmHg 11%
    15:00 +50°C° 0 mm 4 mps 743 mmHg 11%
    16:00 +48°C° 0 mm 4 mps 743 mmHg 14%
    17:00 +45°C° 0 mm 3 mps 743 mmHg 17%
    18:00 +43°C° 0 mm 2 mps 742 mmHg 20%
    19:00 +41°C° 0 mm 2 mps 743 mmHg 24%
    20:00 +39°C° 0 mm 1 mps 743 mmHg 29%
    21:00 +36°C° 0 mm 1 mps 743 mmHg 33%
    22:00 +35°C° 0 mm 1 mps 743 mmHg 34%
    23:00 +34°C° 0 mm 1 mps 743 mmHg 36%

    22 July, Monday

    Time Temperature Precipitation Wind Pressure Humidity
    00:00 +33°C° 0 mm 1 mps 743 mmHg 38%
    01:00 +33°C° 0 mm 1 mps 743 mmHg 39%
    02:00 +33°C° 0 mm 1 mps 742 mmHg 40%
    03:00 +33°C° 0 mm 1 mps 742 mmHg 41%
    04:00 +35°C° 0 mm 2 mps 742 mmHg 40%
    05:00 +36°C° 0 mm 2 mps 743 mmHg 39%
    06:00 +37°C° 0 mm 3 mps 743 mmHg 37%
    07:00 +39°C° 0 mm 3 mps 743 mmHg 32%
    08:00 +43°C° 0 mm 3 mps 743 mmHg 27%
    09:00 +45°C° 0 mm 3 mps 743 mmHg 22%
    10:00 +46°C° 0 mm 3 mps 743 mmHg 18%
    11:00 +48°C° 0 mm 3 mps 743 mmHg 15%
    12:00 +50°C° 0 mm 4 mps 742 mmHg 12%
    13:00 +50°C° 0 mm 3 mps 742 mmHg 12%
    14:00 +51°C° 0 mm 3 mps 741 mmHg 11%
    15:00 +51°C° 0 mm 3 mps 741 mmHg 10%
    16:00 +48°C° 0 mm 3 mps 741 mmHg 15%
    17:00 +45°C° 0 mm 3 mps 741 mmHg 20%
    18:00 +43°C° 0 mm 4 mps 740 mmHg 25%
    19:00 +41°C° 0 mm 4 mps 741 mmHg 32%
    20:00 +38°C° 0 mm 4 mps 741 mmHg 40%
    21:00 +36°C° 0 mm 4 mps 742 mmHg 48%
    22:00 +35°C° 0 mm 3 mps 741 mmHg 48%
    23:00 +34°C° 0 mm 2 mps 741 mmHg 49%
    Show more